Home > Time Zones > World Clock > Weather > France > Lyon > Past weeks

Flag for France Weather past 2 weeks in Lyon, France

Now
63 °F

Clear.


Feels Like: 63 °F
Forecast: 64 / 78 °F
Wind: No wind

Location: Lyon / Bron

Current Time: Aug 28, 2014 at 9:36:01 AM

Latest Report: Aug 28, 2014 at 9:00 AM


Visibility: N/A

Pressure: 30.07 "Hg

Humidity: 73%

Dew point: 54 °F

Location of LyonLocation

Historic Weather in Lyon — Graph

°F

Lyon temperature yesterday

Maximum temperature yesterday: 75 °F (at 3:30 PM)
Minimum temperature yesterday: 59 °F (at 3:30 AM)
Average temperature yesterday: 67 °F

Past Weeks' High & Low Weather Summary

 TemperatureHumidityPressure
High82 °F (Aug 18, 5:30 PM)94% (Aug 13, 9:00 AM)30.21 "Hg (Aug 13, 9:00 AM)
Low52 °F (Aug 16, 6:30 AM)32% (Aug 22, 4:30 PM)29.71 "Hg (Aug 13, 8:00 AM)
Average65 °F62%30.02 "Hg
* Reported Aug 13 8:00 AM — Aug 28 8:30 AM, Lyon, Weather by CustomWeather, © 2014

Note: Actual official high and low records may vary slightly from our data, if they occured in-between our weather recording intervals... More about our weather records

Advertising

Lyon weather history for previous 24 hours

 ConditionsComfort  
Time TempWeatherWind HumidityBarometerVisibility
8:30 AM
Aug 28
59 °FClear.No wind82%30.07 "HgN/A
8:00 AM55 °FClear.No wind88%30.07 "HgN/A
7:30 AM55 °FClear.1 mph88%30.07 "HgN/A
7:00 AM55 °FClear.3 mph88%30.07 "HgN/A
6:30 AM55 °FClear.No wind88%30.07 "HgN/A
6:00 AM55 °FClear.2 mph94%30.07 "HgN/A
5:30 AM55 °FClear.1 mph88%30.07 "HgN/A
5:00 AM55 °FClear.2 mph94%30.07 "HgN/A
4:30 AM55 °FClear.No wind94%30.07 "HgN/A
4:00 AM57 °FClear.No wind88%30.04 "HgN/A
3:30 AM57 °FClear.2 mph88%30.04 "HgN/A
3:00 AM57 °FClear.3 mph88%30.07 "HgN/A
2:30 AM57 °FClear.No wind88%30.07 "HgN/A
2:00 AM59 °FClear.2 mph82%30.07 "HgN/A
1:30 AM59 °FClear.2 mph82%30.07 "HgN/A
1:00 AM59 °FClear.1 mph88%30.07 "HgN/A
12:30 AM61 °FClear.No wind83%30.07 "HgN/A
12:00 AM61 °FClear.No wind83%30.07 "HgN/A
11:30 PM
Aug 27
61 °FClear.1 mph83%30.04 "HgN/A
11:00 PM63 °FClear.2 mph77%30.04 "HgN/A
10:30 PM64 °FClear.No wind73%30.04 "HgN/A
10:00 PM66 °FClear.No wind68%30.04 "HgN/A
9:30 PM66 °FClear.5 mph68%30.04 "HgN/A
9:00 PM68 °FClear.2 mph60%30.04 "HgN/A
8:30 PM70 °FClear.6 mph57%30.01 "HgN/A
8:00 PM72 °FClear.8 mph53%30.01 "HgN/A
7:30 PM73 °FClear.9 mph50%30.01 "HgN/A
7:00 PM73 °FClear.8 mph50%30.01 "HgN/A
6:30 PM73 °FClear.9 mph50%30.01 "HgN/A
6:00 PM73 °FClear.8 mph50%30.01 "HgN/A
5:00 PM73 °FScattered clouds.10 mph50%30.01 "HgN/A
4:30 PM73 °FPartly sunny.7 mph50%30.01 "HgN/A
4:00 PM75 °FBroken clouds.8 mph44%30.01 "HgN/A
3:30 PM75 °FClear.3 mph47%30.01 "HgN/A
3:00 PM73 °FClear.2 mph50%30.01 "HgN/A
2:30 PM72 °FOvercast.5 mph53%30.01 "HgN/A
2:00 PM72 °FMore clouds than sun.7 mph53%30.01 "HgN/A
1:30 PM73 °FClear.3 mph47%30.01 "HgN/A
1:00 PM73 °FPartly sunny.5 mph53%30.01 "HgN/A
12:30 PM70 °FOvercast.5 mph57%30.04 "HgN/A
12:00 PM72 °FMore clouds than sun.5 mph57%30.04 "HgN/A
11:30 AM72 °FScattered clouds.6 mph57%30.04 "HgN/A
11:00 AM70 °FMostly cloudy.5 mph60%30.04 "HgN/A
10:30 AM72 °FPassing clouds.2 mph57%30.01 "HgN/A
10:00 AM70 °FClear.2 mph60%30.01 "HgN/A
9:30 AM68 °FClear.2 mph69%30.01 "HgN/A
9:00 AM64 °FClear.No wind78%30.01 "HgN/A
Weather by CustomWeather, © 2014

See weather overviewHow to use our weather pages